Wind_Speed
63 63 64 63 60 59 56 55 54 53 52 51 51 49 49 53 49 37 37 40 44 45 48 54 49 56 58 59 55 51 51 50 49 44 42 37 39 37
60 64 66 66 65 62 60 59 54 55 54 52 51 51 51 53 52 57 44 43 50 49 48 56 57 51 56 57 55 55 52 50 48 42 40 39 37 36
65 60 63 62 69 64 63 60 56 56 54 51 51 53 53 49 46 44 43 46 45 43 45 48 49 46 47 49 49 51 48 48 48 42 40 37 36 35
73 72 65 49 53 62 64 59 56 55 50 50 49 48 59 44 42 41 40 39 41 45 46 41 44 45 45 48 47 46 47 48 46 43 39 37 37 36
65 56 47 46 40 53 47 53 54 47 54 47 57 43 41 46 46 45 41 42 45 46 47 45 44 47 48 48 45 47 49 47 46 45 39 40 39 39
71 69 72 43 50 48 52 44 46 51 48 57 50 47 47 47 42 42 42 44 48 52 49 50 49 53 54 52 50 50 49 45 45 46 43 43 40 41
72 75 71 50 47 50 49 53 44 55 55 51 51 48 46 44 47 48 47 47 50 49 49 46 52 55 55 56 52 50 47 45 44 48 47 44 44 43
79 78 69 45 51 55 54 53 46 52 53 52 46 44 49 47 52 51 51 52 49 49 47 49 52 54 58 58 49 48 47 43 44 47 48 47 46 45
87 81 60 51 49 53 55 50 50 51 54 52 54 48 49 52 53 53 50 49 50 50 47 46 48 52 51 50 46 47 46 43 44 47 48 48 48 49
58 64 53 51 48 49 49 49 50 49 50 52 50 53 57 57 54 51 50 50 51 50 49 47 46 48 49 49 47 48 48 46 45 48 51 52 52 51
60 65 56 47 46 47 55 55 54 55 49 56 56 58 60 59 56 50 48 50 50 50 49 47 48 52 53 52 50 51 51 49 48 52 55 57 55 54
56 48 44 42 47 46 50 49 56 59 58 58 58 59 59 57 52 50 52 51 52 48 47 47 49 52 53 54 54 54 54 52 48 52 57 58 56 53
51 46 47 50 48 49 53 56 58 59 56 55 55 56 55 52 51 49 49 49 51 52 49 51 51 52 53 54 58 57 57 54 48 50 54 56 53 52
44 41 49 54 54 51 52 53 56 55 54 52 54 54 49 48 48 50 51 51 49 50 50 51 50 50 50 54 56 57 56 54 50 46 50 52 51 52
43 48 50 53 56 58 58 44 39 38 40 41 41 44 47 49 49 52 50 47 43 45 43 42 45 51 54 53 52 53 54 48 44 44 44 47 50 52
55 53 47 36 34 29 25 26 30 33 36 38 41 45 46 49 50 50 48 44 43 39 39 44 45 45 45 44 46 49 47 43 43 44 44 46 48 50
25 17 18 20 23 25 29 32 35 37 38 41 43 46 48 49 50 46 44 42 43 41 40 44 46 46 47 48 51 51 50 44 42 41 42 43 45 49
16 18 20 23 25 25 24 26 27 32 39 44 47 48 48 49 48 49 49 49 46 48 46 44 43 41 42 44 47 49 50 44 40 39 39 40 42 46
20 22 21 22 24 29 30 32 34 36 39 40 45 50 53 53 53 54 55 55 52 48 48 46 46 47 43 41 43 44 45 42 40 38 36 36 40 43
22 23 27 29 31 34 36 38 41 44 44 43 44 49 52 54 56 56 55 50 48 47 49 49 46 44 42 42 42 43 42 41 40 36 36 38 39 42
28 30 33 36 39 42 43 44 44 43 43 45 48 52 50 51 52 52 50 50 51 50 48 46 49 43 38 39 38 38 38 39 40 40 37 37 40 43
38 39 40 40 40 41 40 39 40 41 42 46 50 45 45 46 46 45 42 42 44 45 49 50 41 38 37 38 35 35 35 35 38 40 37 36 38 41
39 40 41 43 41 40 41 40 43 43 43 45 43 42 44 42 38 38 38 39 41 41 39 37 35 37 39 40 39 37 37 36 38 40 36 36 38 40
Wind_Direction
261 262 261 259 258 258 259 261 263 265 268 270 272 274 276 277 282 278 290 281 283 285 292 296 286 282 269 275 270 273 274 284 280 274 271 271 278 282
260 256 254 255 255 255 254 256 260 263 266 268 272 274 274 278 285 282 281 289 288 286 287 284 290 280 276 274 270 273 277 280 274 266 267 269 274 280
256 263 255 253 253 251 250 255 257 261 265 269 273 274 281 276 291 275 278 287 288 286 292 290 293 293 279 273 277 277 273 272 271 261 262 267 271 278
272 246 253 251 260 258 255 254 257 259 266 271 269 269 272 273 274 273 280 284 285 285 290 290 294 291 285 274 276 273 271 269 263 259 259 266 270 275
266 244 256 263 253 246 252 254 266 256 265 264 264 270 264 270 272 276 280 279 281 288 294 287 289 286 286 279 276 275 270 265 260 258 261 264 269 274
263 267 271 252 255 235 235 242 255 248 258 259 264 265 264 269 271 278 275 274 281 285 287 283 285 285 279 276 272 273 270 263 263 262 260 262 269 274
264 265 266 242 244 253 242 252 257 255 257 261 261 262 265 266 276 277 275 275 283 281 281 283 282 282 280 279 280 276 266 260 264 266 265 266 269 274
256 263 262 241 246 240 245 254 259 257 258 261 262 262 265 266 272 276 278 279 283 282 279 280 280 279 280 281 280 272 259 258 266 269 269 273 272 272
252 255 248 239 248 241 250 251 255 255 257 259 257 265 268 273 271 275 279 279 281 276 274 277 277 280 283 279 272 265 258 262 267 267 270 274 274 272
245 247 237 243 240 240 247 252 253 256 260 266 266 270 271 272 274 272 273 275 281 273 272 273 273 274 275 272 269 266 259 260 267 269 270 272 274 272
242 241 239 235 244 246 246 254 255 254 257 263 265 268 271 271 272 271 269 271 269 269 269 271 273 273 273 270 270 269 264 261 265 269 270 272 273 273
233 221 236 240 241 247 245 245 249 257 260 265 269 271 271 269 267 266 266 266 266 267 270 268 270 271 271 268 270 268 264 262 265 269 272 272 272 272
232 230 232 229 243 247 256 259 261 263 265 267 265 263 263 263 265 264 264 266 267 269 267 265 266 269 273 273 270 267 265 262 264 272 273 270 271 271
226 245 244 244 248 253 257 258 261 260 260 261 261 260 260 261 264 267 270 270 268 271 271 272 272 273 272 272 273 273 269 268 266 269 274 274 273 271
263 260 252 252 249 246 248 241 243 247 252 258 267 270 271 273 274 274 276 276 273 270 268 270 270 269 269 270 269 269 269 263 263 264 265 267 268 267
245 235 237 236 237 247 267 280 281 283 283 282 281 279 277 276 276 276 274 272 273 273 268 265 264 267 270 271 272 267 259 260 261 262 263 266 269 265
239 261 273 287 291 293 291 288 287 282 279 279 278 278 278 276 276 270 270 272 273 271 271 267 268 269 270 270 271 265 258 257 260 263 268 268 268 267
265 267 268 272 275 278 277 282 284 287 282 278 277 278 276 273 271 272 271 272 275 270 268 265 265 266 276 270 270 268 262 256 258 263 266 269 271 270
262 259 260 258 261 269 271 281 283 290 285 286 282 276 275 274 272 271 269 268 268 265 260 258 261 269 270 273 269 265 261 258 258 260 263 267 270 271
251 263 272 276 275 282 285 288 291 293 291 289 285 281 278 276 272 270 268 263 259 259 258 259 262 263 263 264 267 260 258 258 257 258 261 266 271 273
267 274 279 283 283 282 285 290 293 292 289 287 287 291 283 276 271 267 263 256 252 251 258 255 262 253 262 262 260 258 258 259 259 258 259 265 270 272
270 277 279 281 283 285 289 288 289 289 287 291 296 289 284 280 271 264 255 250 251 250 255 258 246 254 258 262 259 258 261 263 263 256 255 262 269 274
282 283 282 284 289 287 286 286 288 288 294 301 293 288 290 281 264 249 249 250 248 254 247 247 257 264 261 258 259 260 260 265 263 255 257 265 270 273
Height
5715 5715 5718 5719 5721 5723 5725 5725 5726 5727 5729 5731 5732 5734 5734 5732 5733 5733 5732 5732 5730 5730 5727 5725 5723 5723 5722 5721 5721 5720 5718 5717 5714 5710 5710 5708 5708 5708
5695 5696 5698 5701 5704 5707 5710 5710 5713 5714 5715 5718 5720 5720 5719 5720 5720 5719 5719 5719 5718 5716 5713 5712 5709 5707 5708 5707 5706 5706 5704 5703 5701 5699 5699 5698 5698 5698
5679 5682 5682 5680 5686 5689 5693 5697 5698 5702 5704 5706 5707 5707 5707 5708 5706 5705 5707 5708 5705 5705 5701 5700 5697 5695 5693 5694 5694 5692 5690 5689 5688 5687 5687 5686 5688 5687
5671 5666 5667 5672 5672 5675 5678 5684 5686 5689 5692 5693 5693 5693 5695 5695 5694 5694 5695 5695 5693 5692 5689 5689 5686 5683 5682 5682 5680 5679 5677 5676 5676 5676 5676 5677 5677 5676
5653 5643 5652 5658 5660 5669 5666 5669 5670 5675 5677 5680 5680 5680 5681 5681 5681 5682 5683 5681 5680 5679 5679 5677 5674 5672 5670 5668 5668 5666 5666 5665 5665 5665 5667 5667 5667 5666
5642 5645 5645 5643 5644 5648 5649 5657 5659 5662 5666 5668 5667 5666 5668 5668 5667 5669 5668 5667 5667 5666 5665 5664 5662 5660 5658 5655 5655 5655 5655 5655 5655 5656 5656 5656 5656 5655
5627 5630 5633 5632 5633 5639 5640 5642 5646 5650 5650 5652 5653 5653 5656 5656 5655 5654 5654 5654 5654 5653 5650 5650 5648 5647 5644 5646 5645 5644 5644 5644 5644 5644 5644 5644 5644 5644
5611 5615 5620 5618 5623 5623 5629 5631 5634 5635 5637 5638 5639 5643 5642 5642 5640 5641 5641 5642 5640 5638 5638 5637 5635 5633 5633 5633 5631 5631 5631 5633 5634 5635 5634 5634 5632 5632
5591 5596 5604 5602 5609 5613 5616 5618 5621 5621 5621 5623 5624 5626 5626 5626 5625 5626 5626 5625 5624 5625 5624 5623 5620 5620 5620 5622 5620 5620 5621 5622 5622 5623 5623 5622 5621 5620
5572 5578 5585 5589 5593 5597 5601 5604 5606 5607 5607 5608 5609 5610 5611 5610 5611 5609 5608 5608 5610 5610 5609 5609 5608 5609 5607 5607 5606 5608 5608 5609 5609 5610 5609 5609 5608 5607
5561 5564 5568 5574 5577 5581 5586 5590 5592 5592 5591 5594 5593 5593 5596 5596 5596 5596 5596 5595 5594 5596 5593 5593 5594 5595 5595 5594 5595 5595 5595 5594 5595 5596 5595 5594 5594 5593
5549 5552 5558 5564 5566 5568 5572 5574 5578 5578 5579 5579 5580 5580 5581 5581 5580 5580 5580 5582 5581 5581 5581 5581 5580 5581 5581 5581 5581 5580 5580 5580 5580 5580 5581 5580 5580 5580
5538 5539 5544 5548 5550 5556 5560 5562 5563 5564 5564 5563 5563 5563 5564 5567 5566 5566 5566 5566 5566 5567 5565 5565 5564 5565 5568 5568 5567 5565 5565 5565 5565 5566 5566 5565 5566 5567
5523 5530 5534 5536 5538 5540 5542 5542 5544 5546 5547 5548 5548 5548 5547 5549 5550 5552 5552 5551 5551 5551 5550 5550 5553 5553 5552 5552 5552 5552 5551 5550 5551 5551 5553 5552 5551 5553
5513 5516 5518 5520 5522 5523 5525 5527 5528 5529 5531 5533 5535 5534 5534 5536 5536 5536 5536 5537 5536 5535 5535 5536 5537 5536 5535 5536 5536 5536 5536 5537 5536 5537 5537 5537 5537 5538
5504 5503 5505 5507 5510 5513 5515 5518 5518 5519 5520 5520 5522 5522 5521 5521 5521 5522 5521 5521 5521 5521 5521 5523 5521 5521 5522 5521 5521 5521 5522 5522 5522 5522 5522 5523 5524 5524
5491 5493 5497 5499 5501 5503 5504 5506 5507 5507 5506 5507 5508 5506 5506 5506 5506 5506 5505 5505 5506 5507 5507 5507 5507 5507 5507 5507 5507 5508 5508 5508 5509 5509 5510 5511 5511 5513
5486 5488 5491 5492 5493 5493 5494 5495 5496 5496 5494 5494 5493 5492 5492 5493 5492 5489 5489 5489 5490 5492 5492 5493 5493 5493 5492 5492 5493 5493 5494 5495 5495 5496 5497 5499 5499 5501
5478 5480 5482 5483 5484 5484 5485 5485 5485 5484 5481 5479 5478 5478 5476 5475 5473 5473 5472 5471 5472 5474 5476 5477 5477 5478 5479 5479 5478 5480 5481 5482 5482 5484 5486 5486 5487 5489
5473 5473 5475 5475 5474 5472 5473 5472 5471 5469 5465 5461 5459 5459 5458 5456 5454 5454 5454 5453 5454 5456 5459 5461 5464 5465 5465 5466 5466 5466 5467 5468 5471 5472 5473 5475 5476 5477
5463 5464 5463 5463 5461 5460 5459 5459 5455 5451 5447 5442 5442 5441 5437 5435 5434 5434 5434 5435 5437 5440 5444 5448 5450 5451 5454 5454 5455 5455 5456 5458 5459 5460 5462 5463 5465 5465
5454 5453 5452 5451 5448 5447 5444 5441 5437 5433 5429 5428 5427 5423 5420 5416 5415 5416 5417 5419 5423 5427 5430 5432 5436 5439 5441 5443 5444 5445 5446 5446 5447 5448 5450 5451 5453 5453
5441 5439 5437 5435 5434 5432 5429 5425 5423 5420 5418 5415 5411 5407 5402 5399 5399 5401 5404 5407 5410 5414 5417 5421 5425 5427 5429 5431 5433 5433 5435 5435 5435 5436 5437 5439 5440 5440